Location: Orange
(33.2833°S, 149.1000°E)
Time: 18:19:17
(UTC+11:00)

Hubble Space Telescope - Pass Details

Date: 08 October 2022
Orbit: 530 x 534 km, 28.5° (Epoch: 04 December)

Event Time Altitude Azimuth Distance (km) Brightness Sun altitude
Exits shadow 05:29:19 21° 307° (NW) 1,236 2.0 -13.7°
Maximum altitude 05:30:59 28° 346° (NNW) 1,026 1.9 -13.4°
Drops below altitude 10° 05:34:32 10° 45° (NE) 1,782 3.8 -12.7°
Sets 05:37:00 0° 57° (ENE) 2,670 5.0 -12.2°
